www.pogodaiklimat.ru

Погода и климат >> Архив погоды >> Кувейт >> Mitribah


ПОГОДА в Mitribah

  • Прогноз погоды в Mitribah
  • Монитор погоды в Mitribah
  • Климат города

АРХИВ ПОГОДЫ в Mitribah

Время (UTC), дата Ветер
(напр.,м/с)
 
Видим.   Явления Облачность Т
(С)
Тd
(С)
f
(%)
Тe
(С)
Тes
(С)
Комфортность P
(гПа)
Po
(гПа)
Тmin
(С)
Tmax
(С)
R
(мм)
R24
(мм)
S
(см)
09 11.08 В 5-9
{10}
14 км н/о +46.9 +3.1 7 +46 +46 опасность
перегрева
997.5 998.0
12 11.08 ЮВ 3-7
{11}
19 км н/о +48.7 +6.3 8 +46 +46 опасность
перегрева
996.4 996.0
15 11.08 В 5-7
{11}
18 км н/о +42.8 +14.7 20 +44 +44 опасность
перегрева
997.0 997.0
18 11.08 ЮВ 6-7
{11}
12 км н/о +38.7 +17.2 28 +41 +41 опасность
перегрева
998.4 998.0
21 11.08 Ю 6-8
{10}
14 км н/о +37.2 +11.5 21 +36 +36 очень
жарко
998.3 998.0 +31.7 +50.5
00 12.08 ЮВ 3-6
{12}
15 км н/о +34.6 +12.7 27 +35 +35 очень
жарко
998.1 998.0
03 12.08 Ю 6-8
{9}
18 км н/о +35.4 +7.2 18 +33 +33 жарко 998.8 999.0
06 12.08 ЮЗ 5-7
{9}
18 км н/о +43.3 +5.0 10 +40 +40 очень
жарко
999.6 1000.0
09 12.08 З 2-5
{7}
19 км н/о +50.5 +5.8 7 +48 +48 опасность
перегрева
998.0 998.0
12 12.08 ЮЗ 3-6
{11}
20 км н/о +48.6 +1.0 6 +45 +45 опасность
перегрева
996.7 997.0
15 12.08 ЮЗ 1-2
{8}
20 км н/о +47.7 +0.6 6 +44 +44 опасность
перегрева
996.2 996.0
18 12.08 ЮВ 5-6
{9}
15 км н/о +41.0 +11.1 17 +40 +40 очень
жарко
998.3 998.0
21 12.08 ЮВ 6-7
{8}
16 км н/о +38.4 +11.1 19 +37 +37 очень
жарко
997.5 998.0 +34.4 +51.5
00 13.08 ЮЗ 6-6
{8}
17 км н/о +34.8 +9.6 21 +33 +33 жарко 997.1 997.0
03 13.08 СЗ 6-10
{10}
19 км н/о +35.7 -0.6 10 +32 +32 жарко 998.4 998.0
06 13.08 З 4-5
{10}
18 км н/о +43.5 +3.5 9 +40 +40 очень
жарко
998.7 999.0
09 13.08 С 3-6
{6}
19 км н/о +49.8 +5.7 7 +47 +47 опасность
перегрева
997.9 998.0
12 13.08 ЮВ 1-4
{7}
19 км н/о +51.0 +3.0 6 +48 +48 опасность
перегрева
996.5 997.0
15 13.08 В 3-6
{10}
18 км н/о +44.9 +11.6 14 +44 +44 опасность
перегрева
997.1 997.0
18 13.08 ЮВ 6-7
{10}
19 км н/о +40.2 +7.1 13 +38 +38 очень
жарко
998.6 999.0
21 13.08 ЮЗ 5-6
{7}
16 км н/о +35.8 +6.9 17 +34 +34 очень
жарко
998.9 999.0 +33.3 +51.6
00 14.08 ЮЗ 5-6
{9}
19 км н/о +35.1 +4.1 14 +32 +32 жарко 999.3 999.0
03 14.08 ЮЗ 5-5
{7}
16 км н/о +33.3 +3.9 16 +31 +31 жарко 1000.1 1000.0
06 14.08 З 4-6
{7}
18 км н/о +44.8 +4.5 9 +42 +42 опасность
перегрева
1000.3 1000.0
09 14.08 СЗ 7-10
{11}
19 км н/о +50.7 +5.4 7 +48 +48 опасность
перегрева
998.8 999.0
12 14.08 СЗ 8-13
{13}
18 км н/о +51.0 +0.9 5 +47 +47 опасность
перегрева
997.5 998.0
15 14.08 СЗ 6-7
{14}
20 км н/о +47.3 -0.5 5 +43 +43 опасность
перегрева
997.7 998.0
18 14.08 СЗ 4-4
{14}
20 км н/о +40.2 +1.2 9 +37 +37 очень
жарко
999.8 1000.0
21 14.08 С 5-7
{10}
18 км н/о +38.9 +8.8 16 +37 +37 очень
жарко
1000.2 1000.0 +32.5 +52.3
00 15.08 З 4-5
{10}
15 км н/о +34.2 +8.9 21 +33 +33 жарко 1000.2 1000.0
03 15.08 З 3-4
{5}
15 км н/о +33.2 +9.6 23 +32 +32 жарко 1001.1 1001.0
06 15.08 СЗ 5-6
{7}
19 км н/о +43.1 +8.2 12 +41 +41 опасность
перегрева
1001.4 1001.0
09 15.08 СЗ 6-10
{12}
19 км н/о +47.9 +9.3 11 +46 +46 опасность
перегрева
999.9 1000.0
12 15.08 СЗ 6-9
{12}
18 км н/о +49.0 +6.1 8 +46 +46 опасность
перегрева
998.5 999.0
15 15.08 СЗ 5-7
{11}
20 км н/о +45.6 +4.9 9 +43 +43 опасность
перегрева
998.6 999.0
18 15.08 СЗ 3-4
{11}
19 км н/о +38.8 +5.7 13 +36 +36 очень
жарко
1000.6 1001.0
21 15.08 СЗ 5-6
{6}
20 км н/о +36.5 +7.9 17 +34 +34 очень
жарко
1000.4 1000.0 +32.1 +49.6
00 16.08 СВ 3-3
{6}
14 км н/о +32.6 +7.6 21 +31 +31 жарко 1000.8 1001.0
03 16.08 В 2-2
{5}
15 км н/о +32.6 +8.6 23 +31 +31 жарко 1001.6 1002.0
06 16.08 В 6-8
{9}
17 км н/о +42.3 +13.7 19 +43 +43 опасность
перегрева
1002.4 1002.0
09 16.08 Ю 2-3
{8}
19 км н/о +45.5 +8.3 11 +43 +43 опасность
перегрева
1001.6 1002.0
12 16.08 ЮЗ 3-5
{9}
19 км н/о +48.3 +8.0 9 +46 +46 опасность
перегрева
1000.1 1000.0
15 16.08 З 4-5
{9}
19 км н/о +45.4 +4.9 9 +43 +43 опасность
перегрева
999.5 1000.0
18 16.08 З 1-1
{10}
15 км н/о +40.3 +4.8 11 +37 +37 очень
жарко
1001.2 1001.0
21 16.08 Ю 3-4
{8}
14 км н/о +36.0 +10.1 21 +35 +35 очень
жарко
1000.6 1001.0 +31.2 +48.8
00 17.08 ЮВ 4-5
{9}
12 км н/о +34.0 +15.0 32 +36 +36 душно 1000.3 1000.0
03 17.08 ЮВ 5-6
{7}
3900 м дымка н/о +32.4 +12.7 30 +44 +44 опасность
перегрева
1001.2 1001.0
06 17.08 ЮЗ 5-6
{8}
17 км н/о +43.2 +8.5 13 +41 +41 опасность
перегрева
1002.4 1002.0
09 17.08 З 3-6
{9}
18 км н/о +49.3 +7.8 9 +47 +47 опасность
перегрева
1000.9 1001.0
12 17.08 С 4-6
{9}
18 км н/о +48.7 +7.9 9 +46 +46 опасность
перегрева
999.1 999.0
15 17.08 С 5-6
{8}
13 км н/о +45.6 +14.8 17 +43 +43 опасность
перегрева
999.0 999.0
18 17.08 ЮВ 3-4
{8}
7000 м дымка н/о +39.0 +23.1 40 +48 +48 опасность
перегрева
1000.3 1000.0
21 17.08 ЮВ 5-6
{6}
5000 м дымка н/о +35.6 +27.3 62 +54 +54 опасность
перегрева
1000.4 1000.0 +31.5 +50.8
00 18.08 Ю 4-5
{8}
7000 м дымка н/о +33.8 +19.4 43 +39 +39 очень
душно
1000.4 1000.0
03 18.08 Ю 4-5
{6}
9000 м дымка н/о +32.5 +15.6 36 +35 +35 душно 1001.4 1001.0
06 18.08 ЮЗ 8-10
{10}
10 км н/о +42.9 +14.1 19 +43 +43 опасность
перегрева
1001.6 1002.0

 

Местоположение метеостанции Mitribah (Кувейт): широта 29.82 долгота 47.37 высота над уровнем моря 119 м.

В архиве по умолчанию представлена погода в Mitribah за последнюю неделю. Архивные данные за месяц целиком и за предыдущие месяцы, начиная с января 2011 года, Вы можете получить, выбрав интересующий диапазон дат из раскрывающегося списка и нажав кнопку "Ввод!".

Внимание! Время в таблицах - всемирное. Для получения местного времени необходимо прибавить поправку, которая в Mitribah равна 3 ч.

Смотрите также архив погоды в соседних городах и на ближайших метеорологических станциях:

Погода в Abdaly (Кувейт) (43 км)
Погода в Sabriyah (Кувейт) (47 км)
Погода в Jahra (Кувейт) (63 км)
Погода в Abraque Al Habari (Кувейт) (68 км)
Погода в Sulaibiya (Кувейт) (70 км)
Погода в Warba (Кувейт) (73 км)
Погода в Experimental Farm (Кувейт) (81 км)
Погода в Minagish (Кувейт) (85 км)
Погода в Shuwaikh (Кувейт) (85 км)
Погода в Basrah Airport (Ирак) (87 км)

Пояснения к столбцам:

Ветер - указаны скорость ветра в м/с - средняя за 10 мин, порывы в срок и между сроками (в фигурных скобках) и направление, откуда дует ветер: С - северный, СВ - северо-восточный, В - восточный, ЮВ - юго-восточный, Ю - южный, ЮЗ - юго-западный, З - западный, СЗ - северо-западный.
Видимость - горизонтальная дальность видимости в метрах или километрах. При видимости от 1 до 10 км при отсутствии осадков обычно наблюдается дымка, при ухудшении видимости до 1 км и менее - туман. В сухую погоду видимость может ухудшаться дымом, пылью или мглою.
Явления - указаны атмосферные явления, наблюдавшиеся в срок или в последний час перед сроком; фигурными скобками обозначены явления, наблюдавшиеся между сроками (за 1-3 часа до срока); квадратными скобками обозначены град или гололедные отложения с указанием их диаметра в мм.
Облачность - указаны через наклонную черту общая и нижняя облачность в баллах и высота нижней границы облаков в метрах; квадратными скобками обозначены формы облаков: Ci - перистые, Cs - перисто-слоистые, Cc - перисто-кучевые, Ac - высококучевые, As - высокослоистые, Sc - слоисто-кучевые, Ns - слоисто-дождевые, Cu - кучевые, Cb - кучево-дождевые. Подробнее классификацию облаков см. в Атласе облаков (PDF).
T - Температура воздуха - температура, измеренная на высоте 2 м над землей.
Td - Температура точки росы - температура, при понижении до которой содержащийся в воздухе водяной пар достигнет насыщения.
f - Относительная влажность воздуха - влажноcть воздуха, измеренная на высоте 2 м над землей.
Te - Эффективная температура - температура, которую ощущает одетый по сезону человек в тени. Характеристика душности погоды. При расчете учитывается влияние влажности воздуха и скорости ветра на теплоощущения человека.
Tes - Эффективная температура на солнце - температура, которую ощущает человек, с поправкой на солнечный нагрев. Характеристика знойности погоды. Зависит от высоты солнца над горизонтом, облачности и скорости ветра. Ночью, в пасмурную погоду, а также при ветре 12 м/с и более поправка равна нулю.
P - Атмосферное давление - приведенное к уровню моря атмосферное давление.
Po - Атмосферное давление - измеренное на уровне метеостанции атмосферное давление.
Tmin - Минимальная температура - минимум температуры воздуха на высоте 2 м над землей.
Tmax - Максимальная температура - максимум температуры воздуха на высоте 2 м над землей.
R - Количество осадков - Количество выпавших осадков за период времени, мм. При наведении курсора мыши на число - период времени, за который выпало указанное количество осадков.
R24 - Количество осадков - Количество выпавших осадков за 24 часа, мм.
S - Снежный покров - Высота снежного покрова, см. При наведении курсора мыши на число - состояние снежного покрова и степень покрытия местности в баллах.